Tracking 17828 objects as of 30-July-2016
HD Live streaming from Space Station
objects crossing your sky now

USA 139

Track USA 139 now!
USA 139 is classified as:


NORAD ID: 25336
Int'l Code: 1998-029A
Perigee: 35,663.5 km
Apogee: 35,925.0 km
Inclination: 9.1 °
Period: 1,436.1 minutes
Semi major axis: 42165 km
RCS: Unknown
Launch date: May 9, 1998
Source: United States (US)
Launch site: AIR FORCE EASTERN TEST RANGE (AFETR)

ELINT.
Your satellite tracking list
Your tracking list is empty





NASA's NSSDC Master Catalog

Two Line Element Set (TLE):
1 25336U 98029A   16123.45934036 0.00000000  00000-0  00000-0 0    07
2 25336   9.1440 359.6814 0031007 238.7698 120.9347  1.00270000    05
Source of the keplerian elements: McCants

N2YO: 906